Location: Obersdorf
(47.4079°N, 10.2781°E)
Time: 11:16:58
(UTC+01:00)

XW-2C - Pass Details

Date: 10 December 2021
Orbit: 503 x 523 km, 97.5° (Epoch: 15 January)

Event Time Altitude Azimuth Distance (km) Brightness Sun altitude
Rises 18:38:50 0° 213° (SSW) 2,624 ? -21.1°
Reaches altitude 10° 18:41:57 10° 242° (WSW) 1,749 ? -21.6°
Maximum altitude 18:43:44 13° 271° (W) 1,578 ? -21.9°
Drops below altitude 10° 18:45:31 10° 299° (WNW) 1,762 ? -22.2°
Sets 18:48:41 0° 328° (NNW) 2,661 ? -22.8°
